Torna al catalogo

STARLINK-3754

AttivoComunicazioniVLEO
NORAD 52350·PAYLOAD·🇺🇸 United States

Lanciato Apr 29, 2022 da Cape Canaveral Space Force Station

Loading…

Prossimi Passaggi (prossime 24 ore)

TLE

AggiornatoSource: CelesTrak SupGP

Epoca: Sep 14, 2026, 22:07 UTC

1 52350C 22045V   26257.92201389  .00043450  00000+0  12840-2 0  2573
2 52350  53.1589  55.4721 0001383  86.9322 255.9936 15.34363806    16

Traccia STARLINK-3754 in tempo reale con AllMySat

Download on the App Store